Погода в Бийске

Погода в Бийске : погода сейчас, прогноз погоды и архив. Всё, что Вы хотите узнать о погоде в Бийске!

Хотите узнать прогноз погоды в Бийске? Тогда Вам сюда: Погода в Бийске

Поиск расширенной информации на нашем сайте:

Другие новости

Новости СМИ2

Главная страница сайта

Новости сайта

03.07.2017

Напоминаем, что на нашем специализированном сайте Метеоцентр.Азия вы можете получить высокодетализированные автоматические прогнозы погоды по пунктам России, СНГ и мира в авиационном формате (включающие направление и скорость ветра, видимость, явления погоды, количество и форму облачности, нижнюю и верхнюю границу облачности).


Погода в Бийске - сегодня

Время (UTC), дата Ветер
(°,м/с) 
Видим.   Явления Облачность Т
(°С)
Тd
(°С)
f(%) Тe
(°С)
Pmin
(гПа)
dP
(гПа)
Po
(мм)
O2
(г/м3)
Тmin Tmax R s Состояние
почвы
00 17.10.17 тихо ()   4000 м  дымка  6/4 600 м верхняя 
[Sc|Cc]
-2.6 -3.8 91 -3  1023.9  0.8  746  304  -3.3         
03 17.10.17 060 (СВ) 20000 м    6/0 верхняя 
[Cc]
+3.9 +1.7 86 +5  1023.9  0.7  747  296  -3.4         
06 17.10.17 050 (СВ) 20000 м    6/0 верхняя 
[Cc]
+10.5 +2.4 57 +11  1022.6  -0.6  747  289           
09 17.10.17 040 (СВ) 20000 м    6/0 верхняя 
[Ci sp]
+12.5 +2.1 49 +12  1021.1  -1.3  746  287           
12 17.10.17 040 (СВ) 20000 м    10/0 средняя, верхняя 
[Ac trans|Cc]
+8.2 +2.3 66 +8  1021.3  -0.2  745  291    +12.5       
15 17.10.17 050 (СВ) 20000 м    8/0 верхняя 
[Ci fib]
+5.7 +1.6 75 +5  1020.5  -1  745  294           
18 17.10.17 050 (СВ) 20000 м    6/0 верхняя 
[Ci fib]
+3.6 +0.8 82 +2  1018.9  -1.8  743  295           
21 17.10.17 060 (СВ) 20000 м    6/0 верхняя 
[Ci fib]
+2.3 +0.2 86 +1  1017.4  -1.6  742  296           
00 18.10.17 070 (В) 20000 м    10/0 средняя, верхняя 
[Ac trans|Cc]
+2.3 +0.2 86 +2  1015.5  -1.9  741  296  +1.7         
03 18.10.17 060 (СВ) 20000 м    8/0 средняя, верхняя 
[Ac trans|Cc]
+5 +1.6 79 +4  1014.6  -0.6  740  293           
06 18.10.17 050 (СВ) 20000 м    ясно 
+11.5 +3.6 58 +12  1012.6  -1.3  739  285           
09 18.10.17 060 (СВ) 20000 м    ясно 
+15.3 +3.2 44 +17  1011.1  -1.1  738  281           
12 18.10.17 тихо ()   20000 м    6/0 средняя 
[Ac trans]
+7.4 +2.8 73 +7  1011.7  -0.1  738  289    +15.4       
15 18.10.17 тихо ()   20000 м    6/6 600 м 
[Sc]
+3 +0.6 84 +3  1012.4  0.2  739  294           
18 18.10.17 тихо ()   20000 м    6/3 600 м средняя 
[Sc|Ac trans]
+1.3 -0.4 88 +1  1012.4  -0.2  738  296           
21 18.10.17 тихо ()   20000 м    4/0 средняя 
[Ac trans]
-1.3 -2.6 91 -1  1013.3  0.6  739  299           
00 19.10.17 тихо ()   20000 м    10/0 средняя 
[Ac trans]
+2.4 +0.7 89 +2  1015.1  2.2  740  296  -2         
03 19.10.17 220 (ЮЗ) 4000 м  слаб. ливневой дождь  10/10 600 м кучево-дожд. 
[Cb cap]
+6 +4.6 91 +5  1018.2  3.4  743  292           
06 19.10.17 250 (З) 20000 м  в посл. час ливневой дождь  10/10 300 м кучево-дожд. 
[Cb cap]
+7.4 +5.2 86 +7  1020.2  745  291           
09 19.10.17 230 (ЮЗ) 20000 м    10/8 600 м кучево-дожд., средняя 
[Cb cap|Ac trans]
+9.2 +4.3 71 +9  1019.6  -0.4  744  289           
12 19.10.17 120 (ЮВ) 20000 м    6/6 600 м 
[Sc]
+7.4 +4.2 80 +7  1019.3  -0.4  744  291    +10     
15 19.10.17 110 (В) 20000 м    8/8 600 м 
[Sc]
+6 +3.6 85 +5  1018.2  -1.3  743  292           
18 19.10.17 110 (В) 20000 м    4/4 600 м 
[Sc]
+4.9 +2.6 85 +6  1016.4  -1.8  742  293           
21 19.10.17 080 (В) 20000 м    10/4 600 м верхняя 
[Sc|Ci fib]
+4.2 +2.2 87 +5  1014.2  -2.2  740  293           
00 20.10.17 350 (С) 10 км  слаб. ливневой дождь  10/10 600 м кучево-дожд. 
[Cb cap]
+3.8 +2 88 +5  1014.4  0.1  740  294  +3.3    0.0     
Время (UTC), дата Ветер
(°,м/с) 
Видим.   Явления Облачность Т
(°С)
Тd
(°С)
f(%) Тe
(°С)
Pmin
(гПа)
dP
(гПа)
Po
(мм)
O2
(г/м3)
Тmin Tmax R s Состояние
почвы

Для получения пояснительной информации подведите курсор к названию столбца.

ПОГОДА в Бийске - архив

Всё, что Вы хотите узнать о погоде в Бийске - удобно и подробно!

Выберите нужную дату (начиная с 1 января 2015* года) и нажмите кнопку "Найти".
Будут отображены архивные сводки погоды по пункту Бийск, начиная с указанной даты.


Отображать данные в формате CSV (для использования в таблицах Excel)


Внимание! Наш архив погоды предназначен исключительно для личного некоммерческого использования в познавательных целях. Если Вам необходимы официальные справки о состоянии погоды (для производственных, юридических, коммерческих и т.п. целей), обращайтесь в органы Росгидромета.

*Примечание: данная дата относится к архиву по метеостанциям СССР (Россия, СНГ, Балтия).
Архив по метеостанциям Зарубежной Европы и Азии (кроме Китая) хранится 10 дней, по другим регионам земного шара (Китай, Африка, Америка, Австралия, Океания) - 1 день.

Бийск - район местоположения метеостанции


Название, широта, долгота, высота метеостанции:
Бийск (Зональная) 52.7°ш. 84.9°д. 228 м над ур. моря [Российская Федерация]

Дополнительная информация

В oтличие oт бoльшинства пoгoдных сайтoв мы публикуем пoдрoбную метеoинфoрмацию в детальнoм прoфессиoнальнoм фoрмате.

Характеристики температуры и влажнoсти вoздуха измеряются на высoте 2 м в тени вдали oт зданий и деревьев.
Скoрoсть ветра измеряется на высoте 10 м (на урoвне рoста челoвека скoрoсть ветра ниже в 1.5-2 раза). Если метеoстанция нахoдится в гoрoде или в лесу, тo скoрoсть ветра занижена на 2-4 м/с пo сравнению с oткрытым местoм. Скoрoсть ветра над акватoриями крупных рек и oзёр, а также на вершинах хoлмoв на 2-5 м/с выше, чем в oбычных услoвиях.
Атмoсфернoе давление в разных тoчках местнoсти мoжет значительнo oтличаться oт давления на метеoстанции, в зависимoсти oт услoвий рельефа (при пoдъёме на 10 м давление пoнижается примернo на 1 мм рт.ст.).